Location: Nianha
(10.8000°N, 4.6333°W)
Time: 05:18:54
(UTC+00:00)

Milstar 3 Cent rocket - Pass Details

Date: 14 November 2019
Orbit: 709 x 5144 km, 28.3° (Epoch: 25 January)

Event Time Altitude Azimuth Distance (km) Brightness Sun altitude
Exits shadow 04:03:44 43° 343° (NNW) 2,089 3.9 -31.5°
Maximum altitude 04:05:38 48° 15° (NNE) 1,775 3.7 -31.0°
Drops below altitude 10° 04:11:51 10° 90° (E) 2,719 5.7 -29.5°
Sets 04:13:57 0° 96° (E) 3,446 6.6 -29.0°
